,,Stat5,,Stat1,,Stat2,,Stat3,,Stat4,,Wind1,,Wind1,
time,status,PA1M_AVG,status,PR1M_SUM,status,RH1M_AVG,status,SR1M_AVG,status,TA1M_AVG,status,W1dAve1m,status,W1sAve1m,
2003-04-18, 00:00:00,VALID,918.68,VALID,0,VALID,97.2879,VALID,0.169808,VALID,20.1986,VALID,122,VALID,0,
2003-04-18, 00:01:00,VALID,918.671,VALID,0,VALID,97.2409,VALID,0.20377,VALID,20.221,VALID,122,VALID,0.118896,
2003-04-18, 00:02:00,VALID,918.642,VALID,0,VALID,97.2777,VALID,0.20377,VALID,20.2275,VALID,122,VALID,0.129557,
2003-04-18, 00:03:00,VALID,918.634,VALID,0,VALID,97.3566,VALID,0.169808,VALID,20.2434,VALID,122,VALID,0.0950521,
2003-04-18, 00:04:00,VALID,918.621,VALID,0,VALID,97.3846,VALID,0.135847,VALID,20.276,VALID,122,VALID,0.0383523,
2003-04-18, 00:05:00,VALID,918.627,VALID,0,VALID,97.1887,VALID,0.0849042,VALID,20.2698,VALID,122,VALID,0.000434028,
2003-04-18, 00:06:00,VALID,918.609,VALID,0,VALID,96.5618,VALID,0.101885,VALID,20.1986,VALID,82,VALID,0.206473,
2003-04-18, 00:07:00,VALID,918.615,VALID,0,VALID,96.5021,VALID,0.152827,VALID,20.1531,VALID,70,VALID,0.18821,
2003-04-18, 00:08:00,VALID,918.625,VALID,0,VALID,96.9204,VALID,0.152827,VALID,20.1703,VALID,70,VALID,0.00870536,
2003-04-18, 00:09:00,VALID,918.626,VALID,0,VALID,97.0845,VALID,0.0849042,VALID,20.1825,VALID,70,VALID,0,
2003-04-18, 00:10:00,VALID,918.633,VALID,0,VALID,97.0959,VALID,0.118866,VALID,20.1825,VALID,70,VALID,0.127604,
2003-04-18, 00:11:00,VALID,918.634,VALID,0,VALID,97.19,VALID,0.101885,VALID,20.1956,VALID,66,VALID,0.392887,
2003-04-18, 00:12:00,VALID,918.626,VALID,0,VALID,97.2434,VALID,0.20377,VALID,20.2048,VALID,57,VALID,0.409237,
2003-04-18, 00:13:00,VALID,918.615,VALID,0,VALID,97.0756,VALID,0.152827,VALID,20.1991,VALID,57,VALID,0.289299,
2003-04-18, 00:14:00,VALID,918.609,VALID,0,VALID,96.9306,VALID,0.152827,VALID,20.1566,VALID,57,VALID,0.0674913,
2003-04-18, 00:15:00,VALID,918.608,VALID,0,VALID,97.0031,VALID,0.135847,VALID,20.1342,VALID,59,VALID,0.464286,
2003-04-18, 00:16:00,VALID,918.602,VALID,0,VALID,97.3375,VALID,0.118866,VALID,20.1439,VALID,65,VALID,0.507102,
2003-04-18, 00:17:00,VALID,918.602,VALID,0,VALID,97.5168,VALID,0.135847,VALID,20.1601,VALID,65,VALID,0.3125,
2003-04-18, 00:18:00,VALID,918.614,VALID,0,VALID,97.6427,VALID,0.169808,VALID,20.1892,VALID,65,VALID,0.225446,
2003-04-18, 00:19:00,VALID,918.598,VALID,0,VALID,97.6808,VALID,0.135847,VALID,20.2245,VALID,65,VALID,0.333807,
2003-04-18, 00:20:00,VALID,918.624,VALID,0,VALID,97.63,VALID,0.135847,VALID,20.2404,VALID,65,VALID,0.281456,
2003-04-18, 00:21:00,VALID,918.624,VALID,0,VALID,97.5448,VALID,0.186789,VALID,20.2469,VALID,65,VALID,0.0179228,
2003-04-18, 00:22:00,VALID,918.615,VALID,0,VALID,97.4825,VALID,0.186789,VALID,20.2571,VALID,65,VALID,0,
2003-04-18, 00:23:00,VALID,918.622,VALID,0,VALID,97.4303,VALID,0.20377,VALID,20.2668,VALID,3,VALID,0.451389,
2003-04-18, 00:24:00,VALID,918.621,VALID,0,VALID,97.5524,VALID,0.135847,VALID,20.273,VALID,290,VALID,0.797321,
2003-04-18, 00:25:00,VALID,918.615,VALID,0,VALID,97.5689,VALID,0.169808,VALID,20.2857,VALID,269,VALID,0.763021,
2003-04-18, 00:26:00,VALID,918.618,VALID,0,VALID,97.6198,VALID,0.20377,VALID,20.2954,VALID,257,VALID,0.405134,
2003-04-18, 00:27:00,VALID,918.593,VALID,0,VALID,97.6567,VALID,0.186789,VALID,20.2989,VALID,257,VALID,0.162277,
2003-04-18, 00:28:00,VALID,918.592,VALID,0,VALID,97.6936,VALID,0.220751,VALID,20.3086,VALID,257,VALID,0,
2003-04-18, 00:29:00,VALID,918.577,VALID,0,VALID,97.7254,VALID,0.186789,VALID,20.3051,VALID,257,VALID,0,
2003-04-18, 00:30:00,VALID,918.584,VALID,0,VALID,97.7152,VALID,0.152827,VALID,20.3245,VALID,257,VALID,0,
2003-04-18, 00:31:00,VALID,918.574,VALID,0,VALID,97.6961,VALID,0.152827,VALID,20.325,VALID,257,VALID,0,
2003-04-18, 00:32:00,VALID,918.55,VALID,0,VALID,97.7457,VALID,0.169808,VALID,20.328,VALID,257,VALID,0.031901,
2003-04-18, 00:33:00,VALID,918.554,VALID,0,VALID,97.7762,VALID,0.186789,VALID,20.3404,VALID,262,VALID,0.242188,
2003-04-18, 00:34:00,VALID,918.556,VALID,0,VALID,97.7966,VALID,0.169808,VALID,20.3566,VALID,272,VALID,0.200047,
2003-04-18, 00:35:00,VALID,918.548,VALID,0,VALID,97.8919,VALID,0.152827,VALID,20.3835,VALID,2,VALID,0.248884,
2003-04-18, 00:36:00,VALID,918.538,VALID,0,VALID,97.836,VALID,0.20377,VALID,20.3892,VALID,2,VALID,0.124777,
2003-04-18, 00:37:00,VALID,918.517,VALID,0,VALID,97.747,VALID,0.220751,VALID,20.3797,VALID,343,VALID,0.0700758,
2003-04-18, 00:38:00,VALID,918.492,VALID,0,VALID,97.8131,VALID,0.220751,VALID,20.3795,VALID,210,VALID,0.245683,
2003-04-18, 00:39:00,VALID,918.475,VALID,0,VALID,97.864,VALID,0.0849042,VALID,20.4001,VALID,207,VALID,0.123621,
2003-04-18, 00:40:00,VALID,918.473,VALID,0,VALID,97.8945,VALID,0.0509425,VALID,20.4071,VALID,207,VALID,0.164536,
2003-04-18, 00:41:00,VALID,918.467,VALID,0,VALID,97.9275,VALID,0.118866,VALID,20.4066,VALID,207,VALID,0,
2003-04-18, 00:42:00,VALID,918.452,VALID,0,VALID,97.9352,VALID,0.169808,VALID,20.4039,VALID,207,VALID,0.025,
2003-04-18, 00:43:00,VALID,918.454,VALID,0,VALID,97.9339,VALID,0.135847,VALID,20.3875,VALID,207,VALID,0.0591856,
2003-04-18, 00:44:00,VALID,918.451,VALID,0,VALID,98.0038,VALID,0.152827,VALID,20.4034,VALID,207,VALID,0.028125,
2003-04-18, 00:45:00,VALID,918.436,VALID,0,VALID,97.9835,VALID,0.0849042,VALID,20.4198,VALID,206,VALID,0.0111607,
2003-04-18, 00:46:00,VALID,918.421,VALID,0,VALID,97.9466,VALID,0.0849042,VALID,20.4258,VALID,206,VALID,0,
2003-04-18, 00:47:00,VALID,918.399,VALID,0,VALID,97.8919,VALID,0.118866,VALID,20.4166,VALID,201,VALID,0.113692,
2003-04-18, 00:48:00,VALID,918.413,VALID,0,VALID,97.8856,VALID,0.186789,VALID,20.4161,VALID,182,VALID,0.454963,
2003-04-18, 00:49:00,VALID,918.412,VALID,0,VALID,97.8563,VALID,0.0849042,VALID,20.423,VALID,163,VALID,0.640388,
2003-04-18, 00:50:00,VALID,918.422,VALID,0,VALID,97.9415,VALID,0.101885,VALID,20.3932,VALID,140,VALID,0.560764,
2003-04-18, 00:51:00,VALID,918.416,VALID,0,VALID,98.0585,VALID,0.169808,VALID,20.3964,VALID,151,VALID,0.659598,
2003-04-18, 00:52:00,VALID,918.423,VALID,0,VALID,98.1424,VALID,0.186789,VALID,20.3999,VALID,152,VALID,0.566998,
2003-04-18, 00:53:00,VALID,918.412,VALID,0,VALID,98.2073,VALID,0.186789,VALID,20.3969,VALID,153,VALID,0.435937,
2003-04-18, 00:54:00,VALID,918.415,VALID,0,VALID,98.2658,VALID,0.0849042,VALID,20.3832,VALID,153,VALID,0.405134,
2003-04-18, 00:55:00,VALID,918.395,VALID,0,VALID,98.3001,VALID,0.0849042,VALID,20.3842,VALID,143,VALID,0.28267,
2003-04-18, 00:56:00,VALID,918.393,VALID,0,VALID,98.3484,VALID,0.0849042,VALID,20.3641,VALID,81,VALID,0.269737,
2003-04-18, 00:57:00,VALID,918.382,VALID,0,VALID,98.3828,VALID,0.135847,VALID,20.3648,VALID,42,VALID,0.283088,
2003-04-18, 00:58:00,VALID,918.366,VALID,0,VALID,98.4006,VALID,0.152827,VALID,20.3549,VALID,43,VALID,0.165483,
2003-04-18, 00:59:00,VALID,918.342,VALID,0,VALID,98.4184,VALID,0.0849042,VALID,20.3561,VALID,43,VALID,0.124783,
2003-04-18, 01:00:00,VALID,918.333,VALID,0,VALID,98.4349,VALID,0.0509425,VALID,20.3452,VALID,43,VALID,0,
2003-04-18, 01:01:00,VALID,918.316,VALID,0,VALID,98.4082,VALID,0.0679233,VALID,20.3422,VALID,43,VALID,0,
2003-04-18, 01:02:00,VALID,918.283,VALID,0,VALID,98.3879,VALID,0.0679233,VALID,20.3293,VALID,43,VALID,0,
2003-04-18, 01:03:00,VALID,918.263,VALID,0,VALID,98.4425,VALID,0.0849042,VALID,20.3293,VALID,43,VALID,0,
2003-04-18, 01:04:00,VALID,918.235,VALID,0,VALID,98.5061,VALID,0.0509425,VALID,20.3322,VALID,43,VALID,0,
2003-04-18, 01:05:00,VALID,918.184,VALID,0,VALID,98.5417,VALID,0.0849042,VALID,20.332,VALID,43,VALID,0,
2003-04-18, 01:06:00,VALID,918.151,VALID,0,VALID,98.5862,VALID,0.0679233,VALID,20.3355,VALID,43,VALID,0,
2003-04-18, 01:07:00,VALID,918.112,VALID,0,VALID,98.6053,VALID,0.0849042,VALID,20.3487,VALID,43,VALID,0.0106534,
2003-04-18, 01:08:00,VALID,918.091,VALID,0,VALID,98.6256,VALID,0.118866,VALID,20.3479,VALID,43,VALID,0.0104167,
2003-04-18, 01:09:00,VALID,918.063,VALID,0,VALID,98.6295,VALID,0.169808,VALID,20.3528,VALID,43,VALID,0,
2003-04-18, 01:10:00,VALID,918.053,VALID,0,VALID,98.5926,VALID,0.186789,VALID,20.3533,VALID,43,VALID,0.077178,
2003-04-18, 01:11:00,VALID,918.029,VALID,0,VALID,98.5176,VALID,0.186789,VALID,20.3436,VALID,43,VALID,0.179241,
2003-04-18, 01:12:00,VALID,918.018,VALID,0,VALID,98.5201,VALID,0.237732,VALID,20.3342,VALID,128,VALID,0.616071,
2003-04-18, 01:13:00,VALID,918.018,VALID,0,VALID,98.468,VALID,0.288674,VALID,20.3175,VALID,143,VALID,0.952415,
2003-04-18, 01:14:00,VALID,917.994,VALID,0,VALID,98.4603,VALID,0.20377,VALID,20.2887,VALID,134,VALID,0.811472,
2003-04-18, 01:15:00,VALID,917.985,VALID,0,VALID,98.4794,VALID,0.20377,VALID,20.2787,VALID,162,VALID,0.394761,
2003-04-18, 01:16:00,VALID,917.991,VALID,0,VALID,98.5303,VALID,0.186789,VALID,20.2693,VALID,146,VALID,0.581676,
2003-04-18, 01:17:00,VALID,917.984,VALID,0,VALID,98.5315,VALID,0.169808,VALID,20.2693,VALID,144,VALID,0.666884,
2003-04-18, 01:18:00,VALID,917.978,VALID,0,VALID,98.5506,VALID,0.220751,VALID,20.2394,VALID,136,VALID,0.713839,
2003-04-18, 01:19:00,VALID,917.963,VALID,0,VALID,98.6066,VALID,0.186789,VALID,20.2402,VALID,141,VALID,0.685133,
2003-04-18, 01:20:00,VALID,917.963,VALID,0,VALID,98.7045,VALID,0.152827,VALID,20.2304,VALID,142,VALID,0.590848,
2003-04-18, 01:21:00,VALID,917.937,VALID,0,VALID,98.7401,VALID,0.237732,VALID,20.2205,VALID,139,VALID,0.283705,
2003-04-18, 01:22:00,VALID,917.921,VALID,0,VALID,98.7999,VALID,0.237732,VALID,20.2173,VALID,138,VALID,0.274384,
2003-04-18, 01:23:00,VALID,917.892,VALID,0,VALID,98.8304,VALID,0.220751,VALID,20.2175,VALID,137,VALID,0.584704,
2003-04-18, 01:24:00,VALID,917.86,VALID,0,VALID,98.8685,VALID,0.169808,VALID,20.2011,VALID,129,VALID,0.349954,
2003-04-18, 01:25:00,VALID,917.82,VALID,0,VALID,98.927,VALID,0.186789,VALID,20.1946,VALID,125,VALID,0.261364,
2003-04-18, 01:26:00,VALID,917.772,VALID,0,VALID,98.9664,VALID,0.220751,VALID,20.1946,VALID,127,VALID,0.217231,
2003-04-18, 01:27:00,VALID,917.729,VALID,0,VALID,99.0046,VALID,0.271693,VALID,20.1916,VALID,128,VALID,0.266964,
2003-04-18, 01:28:00,VALID,917.68,VALID,0,VALID,99.0249,VALID,0.271693,VALID,20.1847,VALID,132,VALID,0.346117,
2003-04-18, 01:29:00,VALID,917.639,VALID,0,VALID,99.0466,VALID,0.254712,VALID,20.1951,VALID,133,VALID,0.138616,
2003-04-18, 01:30:00,VALID,917.608,VALID,0,VALID,99.0669,VALID,0.186789,VALID,20.175,VALID,85,VALID,0.553125,
2003-04-18, 01:31:00,VALID,917.583,VALID,0,VALID,99.0669,VALID,0.152827,VALID,20.1628,VALID,76,VALID,0.735085,
2003-04-18, 01:32:00,VALID,917.56,VALID,0,VALID,99.0898,VALID,0.186789,VALID,20.1593,VALID,69,VALID,0.9375,
2003-04-18, 01:33:00,VALID,917.543,VALID,0,VALID,99.086,VALID,0.220751,VALID,20.1424,VALID,70,VALID,1.28998,
2003-04-18, 01:34:00,VALID,917.536,VALID,0,VALID,99.1101,VALID,0.169808,VALID,20.1367,VALID,65,VALID,1.34896,
2003-04-18, 01:35:00,VALID,917.52,VALID,0,VALID,99.1178,VALID,0.135847,VALID,20.124,VALID,68,VALID,1.13455,
2003-04-18, 01:36:00,VALID,917.492,VALID,0,VALID,99.1089,VALID,0.186789,VALID,20.078,VALID,75,VALID,1.19308,
2003-04-18, 01:37:00,VALID,917.475,VALID,0,VALID,99.1012,VALID,0.220751,VALID,20.0626,VALID,82,VALID,1.07552,
2003-04-18, 01:38:00,VALID,917.457,VALID,0,VALID,99.1267,VALID,0.220751,VALID,20.0335,VALID,90,VALID,1.07232,
2003-04-18, 01:39:00,VALID,917.439,VALID,0,VALID,99.175,VALID,0.169808,VALID,20.0111,VALID,96,VALID,1.19531,
2003-04-18, 01:40:00,VALID,917.425,VALID,0,VALID,99.203,VALID,0.20377,VALID,20.0009,VALID,107,VALID,0.97822,
2003-04-18, 01:41:00,VALID,917.424,VALID,0,VALID,99.2869,VALID,0.20377,VALID,20.0076,VALID,121,VALID,0.961143,
2003-04-18, 01:42:00,VALID,917.419,VALID,0,VALID,99.3123,VALID,0.254712,VALID,19.9969,VALID,115,VALID,0.878906,
2003-04-18, 01:43:00,VALID,917.406,VALID,0,VALID,99.325,VALID,0.288674,VALID,20.0141,VALID,144,VALID,0.685369,
2003-04-18, 01:44:00,VALID,917.402,VALID,0,VALID,99.3288,VALID,0.254712,VALID,20.0208,VALID,150,VALID,0.926649,
2003-04-18, 01:45:00,VALID,917.383,VALID,0,VALID,99.3276,VALID,0.186789,VALID,20.0238,VALID,144,VALID,0.923884,
2003-04-18, 01:46:00,VALID,917.376,VALID,0,VALID,99.3276,VALID,0.20377,VALID,20.027,VALID,145,VALID,0.888258,
2003-04-18, 01:47:00,VALID,917.358,VALID,0,VALID,99.3581,VALID,0.254712,VALID,20.024,VALID,147,VALID,0.825,
2003-04-18, 01:48:00,VALID,917.331,VALID,0,VALID,99.3784,VALID,0.237732,VALID,20.0203,VALID,142,VALID,0.677455,
2003-04-18, 01:49:00,VALID,917.311,VALID,0,VALID,99.367,VALID,0.20377,VALID,20.027,VALID,145,VALID,0.670691,
2003-04-18, 01:50:00,VALID,917.277,VALID,0,VALID,99.3594,VALID,0.186789,VALID,19.9944,VALID,139,VALID,0.77611,
2003-04-18, 01:51:00,VALID,917.26,VALID,0,VALID,99.367,VALID,0.237732,VALID,19.9917,VALID,133,VALID,0.728171,
2003-04-18, 01:52:00,VALID,917.231,VALID,0,VALID,99.3835,VALID,0.237732,VALID,19.9683,VALID,131,VALID,0.282197,
2003-04-18, 01:53:00,VALID,917.21,VALID,0,VALID,99.3962,VALID,0.186789,VALID,19.9561,VALID,124,VALID,0.322049,
2003-04-18, 01:54:00,VALID,917.184,VALID,0,VALID,99.3695,VALID,-0.0339617,VALID,19.9512,VALID,119,VALID,0.507143,
2003-04-18, 01:55:00,VALID,917.17,VALID,0,VALID,99.3899,VALID,0,VALID,19.9188,VALID,83,VALID,0.490294,
2003-04-18, 01:56:00,VALID,917.152,VALID,0,VALID,99.4051,VALID,0.0509425,VALID,19.9153,VALID,73,VALID,0.13192,
2003-04-18, 01:57:00,VALID,917.131,VALID,0,VALID,99.4191,VALID,0.0849042,VALID,19.8994,VALID,73,VALID,0,
2003-04-18, 01:58:00,VALID,917.127,VALID,0,VALID,99.4242,VALID,0.118866,VALID,19.8832,VALID,73,VALID,0,
2003-04-18, 01:59:00,VALID,917.124,VALID,0,VALID,99.4242,VALID,0.0679233,VALID,19.8708,VALID,75,VALID,0.0536595,
2003-04-18, 02:00:00,VALID,917.128,VALID,0,VALID,99.4204,VALID,0.0509425,VALID,19.8638,VALID,122,VALID,0.411075,
2003-04-18, 02:01:00,VALID,917.129,VALID,0,VALID,99.4306,VALID,0.0509425,VALID,19.8507,VALID,125,VALID,0.262784,
2003-04-18, 02:02:00,VALID,917.134,VALID,0,VALID,99.442,VALID,0.0849042,VALID,19.8541,VALID,124,VALID,0.116319,
2003-04-18, 02:03:00,VALID,917.143,VALID,0,VALID,99.4535,VALID,0.0849042,VALID,19.8472,VALID,68,VALID,0.236161,
2003-04-18, 02:04:00,VALID,917.152,VALID,0,VALID,99.4535,VALID,0.0679233,VALID,19.8606,VALID,68,VALID,0.12642,
2003-04-18, 02:05:00,VALID,917.15,VALID,0,VALID,99.4255,VALID,0.0169808,VALID,19.828,VALID,68,VALID,0,
2003-04-18, 02:06:00,VALID,917.144,VALID,0,VALID,99.4229,VALID,0.0849042,VALID,19.8218,VALID,68,VALID,0.0694196,
2003-04-18, 02:07:00,VALID,917.131,VALID,0,VALID,99.4217,VALID,0.118866,VALID,19.8051,VALID,68,VALID,0.149384,
2003-04-18, 02:08:00,VALID,917.109,VALID,0,VALID,99.3937,VALID,0.0849042,VALID,19.7892,VALID,68,VALID,0.38898,
2003-04-18, 02:09:00,VALID,917.072,VALID,0,VALID,99.3327,VALID,-0.0339617,VALID,19.7835,VALID,67,VALID,0.413833,
2003-04-18, 02:10:00,VALID,917.055,VALID,0,VALID,99.3352,VALID,-0.0339617,VALID,19.7442,VALID,67,VALID,0.116714,
2003-04-18, 02:11:00,VALID,917.033,VALID,0,VALID,99.3212,VALID,-4.62593e-018,VALID,19.7477,VALID,64,VALID,0.323568,
2003-04-18, 02:12:00,VALID,917.024,VALID,0,VALID,99.2424,VALID,0.0849042,VALID,19.6925,VALID,36,VALID,0.559821,
2003-04-18, 02:13:00,VALID,917.023,VALID,0,VALID,99.1292,VALID,0.0339617,VALID,19.6574,VALID,33,VALID,0.405777,
2003-04-18, 02:14:00,VALID,917.007,VALID,0,VALID,99.0313,VALID,0.0169808,VALID,19.5922,VALID,33,VALID,0.288616,
2003-04-18, 02:15:00,VALID,917.021,VALID,0,VALID,99.0656,VALID,-0.0849042,VALID,19.5798,VALID,33,VALID,0.183482,
2003-04-18, 02:16:00,VALID,917.028,VALID,0,VALID,99.1101,VALID,-0.0679233,VALID,19.5763,VALID,33,VALID,0.147727,
2003-04-18, 02:17:00,VALID,917.034,VALID,0,VALID,99.1559,VALID,-0.0849042,VALID,19.5992,VALID,33,VALID,0.0273438,
2003-04-18, 02:18:00,VALID,917.035,VALID,0,VALID,99.161,VALID,-0.0169808,VALID,19.6186,VALID,33,VALID,0,
2003-04-18, 02:19:00,VALID,917.015,VALID,0,VALID,99.1585,VALID,-0.101885,VALID,19.6186,VALID,33,VALID,0.0369318,
2003-04-18, 02:20:00,VALID,917,VALID,0,VALID,99.2208,VALID,-0.101885,VALID,19.6383,VALID,33,VALID,0.213976,
2003-04-18, 02:21:00,VALID,916.976,VALID,0,VALID,99.2704,VALID,-0.0679233,VALID,19.6412,VALID,84,VALID,0.227679,
2003-04-18, 02:22:00,VALID,916.963,VALID,0,VALID,99.278,VALID,0,VALID,19.6808,VALID,108,VALID,0.342093,
2003-04-18, 02:23:00,VALID,916.917,VALID,0,VALID,99.2551,VALID,-0.0339617,VALID,19.6728,VALID,143,VALID,0.467634,
2003-04-18, 02:24:00,VALID,916.87,VALID,0,VALID,99.2284,VALID,0.0169808,VALID,19.685,VALID,166,VALID,0.579911,
2003-04-18, 02:25:00,VALID,916.849,VALID,0,VALID,99.2411,VALID,0,VALID,19.689,VALID,162,VALID,0.778646,
2003-04-18, 02:26:00,VALID,916.827,VALID,0,VALID,99.2449,VALID,0.0169808,VALID,19.6885,VALID,163,VALID,0.516242,
2003-04-18, 02:27:00,VALID,916.82,VALID,0,VALID,99.2182,VALID,0.101885,VALID,19.6882,VALID,160,VALID,0.349954,
2003-04-18, 02:28:00,VALID,916.812,VALID,0,VALID,99.1775,VALID,0.101885,VALID,19.6691,VALID,155,VALID,0.112453,
2003-04-18, 02:29:00,VALID,916.816,VALID,0,VALID,99.1292,VALID,0.0849042,VALID,19.6502,VALID,128,VALID,0.506293,
2003-04-18, 02:30:00,VALID,916.824,VALID,0,VALID,99.2386,VALID,0.0679233,VALID,19.6564,VALID,107,VALID,0.648661,
2003-04-18, 02:31:00,VALID,916.822,VALID,0,VALID,99.1546,VALID,0.0339617,VALID,19.6427,VALID,90,VALID,0.881866,
2003-04-18, 02:32:00,VALID,916.84,VALID,0,VALID,99.2996,VALID,0.0679233,VALID,19.6661,VALID,91,VALID,0.914955,
2003-04-18, 02:33:00,VALID,916.826,VALID,0,VALID,99.1941,VALID,0.118866,VALID,19.692,VALID,85,VALID,0.788393,
2003-04-18, 02:34:00,VALID,916.824,VALID,0,VALID,99.208,VALID,0.118866,VALID,19.691,VALID,80,VALID,1.00473,
2003-04-18, 02:35:00,VALID,916.816,VALID,0,VALID,99.1877,VALID,0.0849042,VALID,19.7144,VALID,82,VALID,0.966694,
2003-04-18, 02:36:00,VALID,916.818,VALID,0,VALID,99.1254,VALID,0.135847,VALID,19.7243,VALID,82,VALID,0.986443,
2003-04-18, 02:37:00,VALID,916.811,VALID,0,VALID,98.9792,VALID,0.152827,VALID,19.7146,VALID,84,VALID,1.23793,
2003-04-18, 02:38:00,VALID,916.797,VALID,0,VALID,98.8698,VALID,0.152827,VALID,19.6684,VALID,78,VALID,0.943359,
2003-04-18, 02:39:00,VALID,916.792,VALID,0,VALID,98.8507,VALID,-0.0169808,VALID,19.6696,VALID,86,VALID,1.0808,
2003-04-18, 02:40:00,VALID,916.796,VALID,0,VALID,98.8965,VALID,0,VALID,19.6833,VALID,93,VALID,0.940341,
2003-04-18, 02:41:00,VALID,916.799,VALID,0,VALID,98.7706,VALID,-0.0169808,VALID,19.6895,VALID,68,VALID,0.93058,
2003-04-18, 02:42:00,VALID,916.806,VALID,0,VALID,98.4985,VALID,0.0679233,VALID,19.6477,VALID,43,VALID,1.15313,
2003-04-18, 02:43:00,VALID,916.793,VALID,0,VALID,98.4031,VALID,0.0509425,VALID,19.6091,VALID,29,VALID,1.22277,
2003-04-18, 02:44:00,VALID,916.808,VALID,0,VALID,98.4235,VALID,-0.0339617,VALID,19.5833,VALID,36,VALID,1.0514,
2003-04-18, 02:45:00,VALID,916.771,VALID,0,VALID,98.5443,VALID,-0.0509425,VALID,19.5955,VALID,48,VALID,0.872702,
2003-04-18, 02:46:00,VALID,916.761,VALID,0,VALID,98.7134,VALID,-0.0509425,VALID,19.6221,VALID,57,VALID,0.876657,
2003-04-18, 02:47:00,VALID,916.729,VALID,0,VALID,98.8113,VALID,-0.0339617,VALID,19.6544,VALID,70,VALID,0.889106,
2003-04-18, 02:48:00,VALID,916.71,VALID,0,VALID,98.8329,VALID,0,VALID,19.6868,VALID,67,VALID,0.837946,
2003-04-18, 02:49:00,VALID,916.689,VALID,0,VALID,98.8253,VALID,-0.0339617,VALID,19.7059,VALID,76,VALID,0.512784,
2003-04-18, 02:50:00,VALID,916.678,VALID,0,VALID,98.8049,VALID,-0.0849042,VALID,19.6992,VALID,108,VALID,0.39375,
2003-04-18, 02:51:00,VALID,916.66,VALID,0,VALID,98.8088,VALID,0,VALID,19.6927,VALID,141,VALID,0.368304,
2003-04-18, 02:52:00,VALID,916.658,VALID,0,VALID,98.9029,VALID,0.0509425,VALID,19.7059,VALID,142,VALID,0.645123,
2003-04-18, 02:53:00,VALID,916.64,VALID,0,VALID,98.9728,VALID,0.0339617,VALID,19.7156,VALID,147,VALID,0.58347,
2003-04-18, 02:54:00,VALID,916.627,VALID,0,VALID,99.0287,VALID,-0.0339617,VALID,19.7353,VALID,150,VALID,0,
2003-04-18, 02:55:00,VALID,916.599,VALID,0,VALID,99.0707,VALID,0.0339617,VALID,19.7385,VALID,75,VALID,0.442472,
2003-04-18, 02:56:00,VALID,916.597,VALID,0,VALID,99.1165,VALID,0.0679233,VALID,19.7348,VALID,51,VALID,0.368056,
2003-04-18, 02:57:00,VALID,916.588,VALID,0,VALID,99.1457,VALID,0.0849042,VALID,19.7216,VALID,51,VALID,0.144643,
2003-04-18, 02:58:00,VALID,916.583,VALID,0,VALID,99.1737,VALID,0.101885,VALID,19.7313,VALID,62,VALID,0.232955,
2003-04-18, 02:59:00,VALID,916.6,VALID,0,VALID,99.189,VALID,0.101885,VALID,19.7382,VALID,65,VALID,0.15,
2003-04-18, 03:00:00,VALID,916.594,VALID,0,VALID,99.1788,VALID,0.0849042,VALID,19.7213,VALID,69,VALID,0.105804,
2003-04-18, 03:01:00,VALID,916.596,VALID,0,VALID,99.2131,VALID,0.0169808,VALID,19.7183,VALID,137,VALID,0.575047,
2003-04-18, 03:02:00,VALID,916.575,VALID,0,VALID,99.2615,VALID,0.0679233,VALID,19.7221,VALID,151,VALID,0.525905,
2003-04-18, 03:03:00,VALID,916.562,VALID,0,VALID,99.292,VALID,0.118866,VALID,19.738,VALID,153,VALID,0.584099,
2003-04-18, 03:04:00,VALID,916.56,VALID,0,VALID,99.3187,VALID,0.0509425,VALID,19.7415,VALID,145,VALID,0.873343,
2003-04-18, 03:05:00,VALID,916.523,VALID,0,VALID,99.3403,VALID,0.0509425,VALID,19.7313,VALID,142,VALID,0.858941,
2003-04-18, 03:06:00,VALID,916.509,VALID,0,VALID,99.3784,VALID,0.0849042,VALID,19.7313,VALID,143,VALID,0.724107,
2003-04-18, 03:07:00,VALID,916.491,VALID,0,VALID,99.4051,VALID,0.135847,VALID,19.7445,VALID,144,VALID,0.902225,
2003-04-18, 03:08:00,VALID,916.467,VALID,0,VALID,99.4268,VALID,0.118866,VALID,19.7246,VALID,154,VALID,1.00558,
2003-04-18, 03:09:00,VALID,916.448,VALID,0,VALID,99.4484,VALID,0.0679233,VALID,19.7338,VALID,145,VALID,1.20045,
2003-04-18, 03:10:00,VALID,916.446,VALID,0,VALID,99.4954,VALID,0.0509425,VALID,19.7377,VALID,131,VALID,1.02746,
2003-04-18, 03:11:00,VALID,916.446,VALID,0,VALID,99.4967,VALID,0.0849042,VALID,19.7348,VALID,122,VALID,0.906867,
2003-04-18, 03:12:00,VALID,916.444,VALID,0,VALID,99.5221,VALID,0.152827,VALID,19.7283,VALID,136,VALID,0.615579,
2003-04-18, 03:13:00,VALID,916.446,VALID,0,VALID,99.5463,VALID,0.135847,VALID,19.742,VALID,98,VALID,0.536458,
2003-04-18, 03:14:00,VALID,916.444,VALID,0,VALID,99.5641,VALID,0.135847,VALID,19.7221,VALID,83,VALID,0.652561,
2003-04-18, 03:15:00,VALID,916.441,VALID,0,VALID,99.5819,VALID,0.0849042,VALID,19.7253,VALID,82,VALID,0.490402,
2003-04-18, 03:16:00,VALID,916.457,VALID,0,VALID,99.5959,VALID,0.0849042,VALID,19.7251,VALID,65,VALID,0.573864,
2003-04-18, 03:17:00,VALID,916.483,VALID,0,VALID,99.6111,VALID,0.101885,VALID,19.7186,VALID,38,VALID,0.546205,
2003-04-18, 03:18:00,VALID,916.479,VALID,0,VALID,99.6226,VALID,0.118866,VALID,19.7248,VALID,29,VALID,0.640402,
2003-04-18, 03:19:00,VALID,916.507,VALID,0,VALID,99.6315,VALID,0.0679233,VALID,19.728,VALID,21,VALID,0.455019,
2003-04-18, 03:20:00,VALID,916.525,VALID,0,VALID,99.6442,VALID,-0.0169808,VALID,19.7119,VALID,11,VALID,0.606497,
2003-04-18, 03:21:00,VALID,916.545,VALID,0,VALID,99.6493,VALID,0.0339617,VALID,19.7318,VALID,14,VALID,0.808594,
2003-04-18, 03:22:00,VALID,916.556,VALID,0,VALID,99.6518,VALID,0.0339617,VALID,19.7121,VALID,18,VALID,0.753788,
2003-04-18, 03:23:00,VALID,916.559,VALID,0,VALID,99.6455,VALID,0.0339617,VALID,19.6925,VALID,19,VALID,0.979818,
2003-04-18, 03:24:00,VALID,916.567,VALID,0,VALID,99.6595,VALID,-0.0169808,VALID,19.6823,VALID,32,VALID,0.871875,
2003-04-18, 03:25:00,VALID,916.563,VALID,0,VALID,99.6417,VALID,0,VALID,19.6795,VALID,46,VALID,0.761364,
2003-04-18, 03:26:00,VALID,916.556,VALID,0,VALID,99.6391,VALID,0,VALID,19.6766,VALID,72,VALID,0.716295,
2003-04-18, 03:27:00,VALID,916.557,VALID,0,VALID,99.6239,VALID,0.0679233,VALID,19.6701,VALID,83,VALID,0.936161,
2003-04-18, 03:28:00,VALID,916.562,VALID,0,VALID,99.601,VALID,0.0849042,VALID,19.6572,VALID,95,VALID,1.08002,
2003-04-18, 03:29:00,VALID,916.581,VALID,0,VALID,99.573,VALID,0.0679233,VALID,19.6639,VALID,95,VALID,1.19038,
2003-04-18, 03:30:00,VALID,916.592,VALID,0,VALID,99.4967,VALID,0.0509425,VALID,19.6833,VALID,100,VALID,1.00184,
2003-04-18, 03:31:00,VALID,916.616,VALID,0,VALID,99.428,VALID,0.0169808,VALID,19.6798,VALID,101,VALID,1.009,
2003-04-18, 03:32:00,VALID,916.627,VALID,0,VALID,99.3581,VALID,0.0509425,VALID,19.7019,VALID,107,VALID,1.09527,
2003-04-18, 03:33:00,VALID,916.631,VALID,0,VALID,99.2907,VALID,0.0679233,VALID,19.7216,VALID,109,VALID,0.954464,
2003-04-18, 03:34:00,VALID,916.626,VALID,0,VALID,99.2297,VALID,0.0339617,VALID,19.7375,VALID,114,VALID,0.890152,